User: anonymous   Login
Location: Stonelick Lake State Park
(39.2170°N, 84.0850°W)
Time: 23:03:07
(UTC-04:00)
Language:

Lacrosse 5 - Orbit

View from above orbital plane
View from above orbital plane
View from above satellite
View from above satellite

Ground track
Ground track

The orbit data is extracted from the following two-line orbital elements,

1 28646U 05016A   14292.07491943 0.00000300  00000-0  71323-4 0    09
2 28646  57.0090 154.8395 0011602 146.0463 213.9537 14.53528514    06
Epoch (UTC): 19 October 2014 01:47:53
Eccentricity: 0.0011602
inclination: 57.0090°
perigee height: 706 km
apogee height: 722 km
right ascension of ascending node: 154.8395°
argument of perigee: 146.0463°
revolutions per day: 14.53528514
mean anomaly at epoch: 213.9537°
orbit number at epoch: 0

The dashed part of the orbit path shows where the satellite is in the earth's shadow,  

DLR